This demonstration page uses our WeatherBlox Daily Observations layout. Learn more.

Left ArrowRight Arrow

41.86663, -103.66717

Hourly Observations for May 20, 2018

Temp ( °F °C ) Dew Point ( °F °C ) Humidity (%) Winds ( mph kmh ) Pressure ( in mb ) Visibility ( mi km ) Precip ( " mm )
12:53 am 00:53 Cloudy 44 6.7 42 5.6 93 93 WNW 6 9 30.28 1025 10 16 0.00 0.00
1:53 am 01:53 Cloudy 44 6.7 42 5.6 93 93 WNW 5 7 30.27 1025 10 16 0.00 0.00
2:53 am 02:53 Cloudy 44 6.7 43 6.1 96 96 NW 5 7 30.25 1024 10 16 0.00 0.00
3:53 am 03:53 Cloudy 44 6.7 42 5.6 93 93 NW 5 7 30.24 1024 10 16 0.00 0.00
4:53 am 04:53 Cloudy 44 6.7 41 5 89 89 NW 6 9 30.22 1023 10 16 0.00 0.00
5:53 am 05:53 Mostly Cloudy 43 6.1 41 5 93 93 NW 3 6 30.25 1024 10 16 0.00 0.00
6:53 am 06:53 Sunny 45 7.2 42 5.6 90 90 SSW 5 7 30.27 1025 10 16 0.00 0.00
7:53 am 07:53 Mostly Cloudy 47 8.3 41 5 80 80 S 3 6 30.28 1025 10 16 0.00 0.00
8:53 am 08:53 Sunny 49 9.4 40 4.4 71 71 Calm 30.27 1025 10 16 0.00 0.00
9:53 am 09:53 Sunny 53 11.7 37 2.8 55 55 Calm 30.23 1024 10 16 0.00 0.00
10:53 am 10:53 Sunny 55 12.8 40 4.4 57 57 S 7 11 30.22 1023 10 16 0.00 0.00
11:53 am 11:53 Sunny 56 13.3 40 4.4 55 55 VRB 3 6 30.19 1022 10 16 0.00 0.00
12:53 pm 12:53 Mostly Sunny 58 14.4 42 5.6 56 56 VRB 6 9 30.16 1021 10 16 0.00 0.00
1:53 pm 13:53 Mostly Sunny 60 15.6 44 6.7 56 56 VRB 5 7 30.13 1020 10 16 0.00 0.00
2:53 pm 14:53 Mostly Sunny 61 16.1 44 6.7 54 54 VRB 5 7 30.10 1019 10 16 0.00 0.00
3:53 pm 15:53 Sunny 61 16.1 44 6.7 54 54 VRB 3 6 30.08 1019 10 16 0.00 0.00
4:53 pm 16:53 Mostly Sunny 63 17.2 45 7.2 52 52 SE 8 13 30.06 1018 10 16 0.00 0.00
5:53 pm 17:53 Sunny 62 16.7 43 6.1 50 50 SE 10 17 30.06 1018 10 16 0.00 0.00
6:53 pm 18:53 Mostly Sunny 61 16.1 45 7.2 56 56 SSE 10 17 30.06 1018 10 16 0.00 0.00
7:53 pm 19:53 Cloudy 59 15 45 7.2 60 60 SE 12 19 30.06 1018 10 16 0.00 0.00
8:53 pm 20:53 Clear 54 12.2 46 7.8 75 75 ESE 8 13 30.06 1018 10 16 0.00 0.00
9:53 pm 21:53 Clear 52 11.1 47 8.3 83 83 ESE 7 11 30.05 1018 10 16 0.00 0.00
10:53 pm 22:53 Clear 50 10 47 8.3 89 89 ESE 8 13 30.04 1017 10 16 0.00 0.00
11:53 pm 23:53 Clear 49 9.4 47 8.3 93 93 ESE 7 11 30.03 1017 10 16 0.00 0.00

Powered by AerisWeather